Retour au catalogue

STARLINK-34686

ActifCommunicationsVLEO
NORAD 65087·PAYLOAD·🇺🇸 United States

Lancé Aug 4, 2025 depuis Cape Canaveral Space Force Station

Loading…

Prochains Passages (prochaines 24 heures)

TLE

FraisSource: CelesTrak SupGP

Époque: Sep 14, 2026, 20:51 UTC

1 65087C 25167K   26257.86923611  .00046245  00000+0  14871-2 0  2575
2 65087  53.1569 228.0914 0001345  93.7066 204.7215 15.31679407    12

Suivez STARLINK-34686 en temps réel avec AllMySat

Download on the App Store